M I D A S
Marine Information and Data Acquisition System
Tripno 1153 of the Zeeleeuw from 2006-08-25 06:30:52 to 2006-08-25 13:53:13
Back to CruiseResearch ActivitiesStationsMapUnderway DataData graphs

EquipmentUnitsComments
TimeDGPSUTC
LatitudeDGPSDM.mWGS84
LongitudeDGPSDM.mWGS84
SpeedMeteo Stationm/sRelative wind speed
DirectionMeteo StationdegRelative wind direction
TemperatureMeteo Stationdeg CelciusAir temperature
PressureMeteo StationPaAtmospheric pressure
HumidityMeteo Station%Relative humidity
Missing or incorrect values are displayed as -999
Metereological data collected by the RV Zeeleeuw from 2006-08-25 06:23:06 to 2006-08-25 14:06:03
Time Latitude Longitude Speed Direction Temperature Pressure Humidity
2006-08-25 06:24 51°13.617 2°56.032 7.5 40 17.2 100810 83
2006-08-25 06:25 51°13.645 2°55.938 7.7 33 17.2 100810 83
2006-08-25 06:26 51°13.672 2°55.84 9 37 17.2 100820 83
2006-08-25 06:27 51°13.683 2°55.758 7.2 270 17.2 100820 83
2006-08-25 06:28 51°13.689 2°55.749 6.5 241 17.2 100810 83
2006-08-25 06:29 51°13.737 2°55.721 7.5 326 17.2 100800 83
2006-08-25 06:30 51°13.826 2°55.639 11.5 324 17.2 100800 83
2006-08-25 06:31 51°13.942 2°55.556 8.6 321 17.2 100790 83
2006-08-25 06:32 51°14.059 2°55.473 13.3 324 17.2 100790 84
2006-08-25 06:33 51°14.172 2°55.383 12.7 329 17.1 100770 84
2006-08-25 06:34 51°14.269 2°55.245 12.5 332 17.1 100790 84
2006-08-25 06:35 51°14.365 2°55.064 13.1 332 17.1 100790 83
2006-08-25 06:36 51°14.462 2°54.828 14.2 337 17.2 100790 85
2006-08-25 06:37 51°14.543 2°54.549 13.6 335 17.1 100780 83
2006-08-25 06:38 51°14.628 2°54.26 14.5 336 17.2 100780 84
2006-08-25 06:39 51°14.708 2°53.967 16.2 335 17.2 100780 84
2006-08-25 06:40 51°14.793 2°53.682 13.3 339 17.1 100790 84
2006-08-25 06:41 51°14.878 2°53.404 15.4 334 17.2 100780 85
2006-08-25 06:42 51°14.96 2°53.113 13.6 337 17.2 100790 84
2006-08-25 06:43 51°15.041 2°52.811 14.6 342 17.1 100780 84
2006-08-25 06:44 51°15.11 2°52.504 14.6 339 17.2 100780 84
2006-08-25 06:45 51°15.179 2°52.199 14.9 340 17.2 100780 84
2006-08-25 06:46 51°15.248 2°51.891 14.5 341 17.1 100780 82
2006-08-25 06:47 51°15.292 2°51.569 13.7 349 17.1 100790 81
2006-08-25 06:48 51°15.267 2°51.232 12.3 350 17.1 100790 81
2006-08-25 06:49 51°15.252 2°50.892 13.1 347 17.1 100780 81
2006-08-25 06:50 51°15.239 2°50.554 12.9 347 17.1 100780 82
2006-08-25 06:51 51°15.228 2°50.217 13.4 348 17.1 100810 82
2006-08-25 06:52 51°15.225 2°49.879 14 346 17.1 100790 83
2006-08-25 06:53 51°15.224 2°49.542 13.3 347 17.1 100790 82
2006-08-25 06:54 51°15.222 2°49.204 12.5 345 17.1 100790 82
2006-08-25 06:55 51°15.218 2°48.866 13.5 348 17.2 100800 83
2006-08-25 06:56 51°15.216 2°48.53 12.8 350 17.1 100800 84
2006-08-25 06:57 51°15.213 2°48.193 13 347 17.1 100800 83
2006-08-25 06:58 51°15.219 2°47.861 12.4 346 17.1 100800 82
2006-08-25 06:59 51°15.22 2°47.531 12.6 348 17.1 100810 82
2006-08-25 07:00 51°15.221 2°47.199 14.2 348 17.1 100800 83
2006-08-25 07:01 51°15.229 2°46.869 13.3 349 17 100800 82
2006-08-25 07:02 51°15.236 2°46.535 13.3 343 17.1 100810 83
2006-08-25 07:03 51°15.244 2°46.199 14.3 349 17.1 100810 83
2006-08-25 07:04 51°15.251 2°45.865 14.5 344 17 100810 82
2006-08-25 07:05 51°15.26 2°45.542 13.3 346 17 100800 82
2006-08-25 07:06 51°15.272 2°45.195 13.1 343 17 100810 82
2006-08-25 07:07 51°15.282 2°44.857 14.1 346 17 100810 81
2006-08-25 07:08 51°15.288 2°44.528 13.7 346 17.1 100820 82
2006-08-25 07:09 51°15.303 2°44.196 13.8 345 17.1 100820 82
2006-08-25 07:10 51°15.321 2°43.858 14.9 342 17.1 100820 81
2006-08-25 07:11 51°15.341 2°43.527 13.6 342 17.1 100820 81
2006-08-25 07:12 51°15.355 2°43.197 13.3 347 17.1 100820 81
2006-08-25 07:13 51°15.335 2°42.865 12.5 350 17.2 100820 81
2006-08-25 07:14 51°15.313 2°42.531 13 347 17.1 100820 81
2006-08-25 07:15 51°15.308 2°42.215 12.4 346 17.1 100820 81
2006-08-25 07:16 51°15.338 2°42.05 9.1 334 17.2 100840 83
2006-08-25 07:17 51°15.365 2°41.971 8.3 326 17.2 100840 82
2006-08-25 07:18 51°15.394 2°41.912 10 321 17.1 100840 82
2006-08-25 07:19 51°15.423 2°41.871 8.9 37 17.1 100840 82
2006-08-25 07:20 51°15.447 2°41.835 8.8 318 17.1 100830 81
2006-08-25 07:21 51°15.44 2°41.813 6.4 317 17.1 100840 82
2006-08-25 07:22 51°15.418 2°41.799 7.7 233 17.2 100840 83
2006-08-25 07:23 51°15.395 2°41.784 7.5 246 17.2 100850 82
2006-08-25 07:24 51°15.372 2°41.764 6.8 252 17.1 100860 82
2006-08-25 07:25 51°15.349 2°41.738 6.9 265 17.2 100870 83
2006-08-25 07:26 51°15.328 2°41.708 8.8 268 17.2 100870 83
2006-08-25 07:27 51°15.31 2°41.683 6.5 32 17.1 100870 82
2006-08-25 07:28 51°15.292 2°41.664 7.1 38 17 100870 82
2006-08-25 07:29 51°15.276 2°41.649 7.9 36 17 100870 82
2006-08-25 07:30 51°15.258 2°41.637 6.7 268 17 100880 82
2006-08-25 07:31 51°15.242 2°41.622 5.9 263 17 100880 82
2006-08-25 07:32 51°15.228 2°41.615 7.1 260 17.1 100880 82
2006-08-25 07:33 51°15.248 2°41.615 9.9 315 17 100860 82
2006-08-25 07:34 51°15.289 2°41.539 9.6 340 17 100850 81
2006-08-25 07:35 51°15.297 2°41.392 8.6 341 17 100840 81
2006-08-25 07:36 51°15.289 2°41.344 7.1 331 17.1 100860 81
2006-08-25 07:37 51°15.263 2°41.338 7.3 344 17 100860 80
2006-08-25 07:38 51°15.245 2°41.323 6.9 349 17.1 100860 82
2006-08-25 07:39 51°15.225 2°41.313 6.7 359 17.1 100860 81
2006-08-25 07:40 51°15.207 2°41.304 6.5 7 17 100850 81
2006-08-25 07:41 51°15.19 2°41.293 7.1 15 17 100850 81
2006-08-25 07:42 51°15.173 2°41.281 6.2 23 17.1 100870 82
2006-08-25 07:43 51°15.154 2°41.267 7.6 23 17.1 100860 82
2006-08-25 07:44 51°15.135 2°41.251 7.2 26 17 100860 80
2006-08-25 07:45 51°15.116 2°41.236 7.5 24 17.1 100860 81
2006-08-25 07:46 51°15.098 2°41.221 7 21 17.2 100860 82
2006-08-25 07:47 51°15.078 2°41.205 7.5 16 17.2 100870 81
2006-08-25 07:48 51°15.059 2°41.19 8.4 18 17.3 100860 83
2006-08-25 07:49 51°15.036 2°41.163 7.4 2 17.2 100860 81
2006-08-25 07:50 51°15.028 2°41.073 8.8 329 17.1 100860 81
2006-08-25 07:51 51°15.068 2°41.03 8.3 235 17.1 100860 81
2006-08-25 07:52 51°15.096 2°41.015 7.2 33 17.2 100850 81
2006-08-25 07:53 51°15.092 2°41 7.8 233 17.2 100860 81
2006-08-25 07:54 51°15.077 2°40.994 6.5 246 17.2 100880 81
2006-08-25 07:55 51°15.074 2°40.986 7.4 235 17.3 100880 82
2006-08-25 07:56 51°15.067 2°40.978 7 243 17.3 100870 81
2006-08-25 07:57 51°15.053 2°40.972 8.7 251 17.3 100880 82
2006-08-25 07:58 51°15.035 2°40.964 7.8 260 17.3 100880 81
2006-08-25 07:59 51°15.015 2°40.953 5.5 263 17.2 100880 81
2006-08-25 08:00 51°14.996 2°40.942 6.4 263 17.2 100890 81
2006-08-25 08:01 51°14.976 2°40.928 4.9 264 17.2 100890 80
2006-08-25 08:02 51°14.955 2°40.913 5.8 269 17.3 100880 82
2006-08-25 08:03 51°14.934 2°40.898 6.3 267 17.3 100890 81
2006-08-25 08:04 51°14.917 2°40.892 7.8 258 17.3 100900 80
2006-08-25 08:05 51°14.937 2°40.885 8.6 316 17.3 100870 80
2006-08-25 08:06 51°14.95 2°40.81 8.4 344 17.3 100870 81
2006-08-25 08:07 51°14.951 2°40.739 7.2 332 17.3 100870 81
2006-08-25 08:08 51°14.948 2°40.7 8.2 325 17.3 100880 83
2006-08-25 08:09 51°14.935 2°40.678 7.4 323 17.3 100880 82
2006-08-25 08:10 51°14.919 2°40.658 6.5 320 17.3 100880 81
2006-08-25 08:11 51°14.902 2°40.642 7 337 17.3 100880 81
2006-08-25 08:12 51°14.879 2°40.632 6.3 332 17.2 100880 80
2006-08-25 08:13 51°14.856 2°40.626 6.2 348 17.3 100880 81
2006-08-25 08:14 51°14.833 2°40.624 7.5 355 17.2 100870 81
2006-08-25 08:15 51°14.812 2°40.62 7.8 9 17.1 100880 80
2006-08-25 08:16 51°14.791 2°40.615 5.9 18 17 100880 80
2006-08-25 08:17 51°14.771 2°40.606 6.5 25 17 100890 81
2006-08-25 08:18 51°14.749 2°40.596 8.2 20 17.1 100890 82
2006-08-25 08:19 51°14.721 2°40.579 8 14 17.2 100890 82
2006-08-25 08:20 51°14.686 2°40.502 7.9 340 17.1 100880 82
2006-08-25 08:21 51°14.701 2°40.42 8 39 17.1 100890 82
2006-08-25 08:22 51°14.742 2°40.382 8.1 35 17.1 100880 82
2006-08-25 08:23 51°14.778 2°40.347 7.8 322 17.1 100890 81
2006-08-25 08:24 51°14.791 2°40.311 6.4 324 17.2 100900 81
2006-08-25 08:25 51°14.779 2°40.292 6.1 320 17.2 100900 81
2006-08-25 08:26 51°14.767 2°40.273 6.7 325 17.3 100890 82
2006-08-25 08:27 51°14.752 2°40.257 6.6 326 17.4 100900 81
2006-08-25 08:28 51°14.731 2°40.244 5.4 329 17.4 100910 81
2006-08-25 08:29 51°14.706 2°40.235 5.6 338 17.4 100910 81
2006-08-25 08:30 51°14.682 2°40.232 6.4 349 17.4 100910 82
2006-08-25 08:31 51°14.659 2°40.23 7.3 352 17.4 100910 82
2006-08-25 08:32 51°14.638 2°40.228 6.1 3 17.2 100900 81
2006-08-25 08:33 51°14.618 2°40.224 7.1 11 17.1 100910 81
2006-08-25 08:34 51°14.599 2°40.217 7.3 15 17.1 100910 81
2006-08-25 08:35 51°14.569 2°40.183 7.9 358 17.2 100900 80
2006-08-25 08:36 51°14.56 2°40.086 8.8 325 17.1 100900 80
2006-08-25 08:37 51°14.602 2°40.031 8.3 316 17.2 100900 79
2006-08-25 08:38 51°14.642 2°39.984 8.1 324 17.3 100890 80
2006-08-25 08:39 51°14.661 2°39.933 8.1 318 17.3 100910 78
2006-08-25 08:40 51°14.657 2°39.908 6.2 320 17.3 100910 78
2006-08-25 08:41 51°14.642 2°39.894 6.6 41 17.4 100900 78
2006-08-25 08:42 51°14.627 2°39.882 7 36 17.4 100910 77
2006-08-25 08:43 51°14.618 2°39.87 7.6 37 17.4 100920 76
2006-08-25 08:44 51°14.613 2°39.857 6.8 41 17.4 100910 76
2006-08-25 08:45 51°14.606 2°39.844 6.6 39 17.4 100910 76
2006-08-25 08:46 51°14.599 2°39.83 5.8 33 17.4 100910 76
2006-08-25 08:47 51°14.586 2°39.818 6.4 36 17.4 100910 77
2006-08-25 08:48 51°14.567 2°39.809 6.4 234 17.5 100920 77
2006-08-25 08:49 51°14.543 2°39.802 8.2 246 17.5 100910 76
2006-08-25 08:50 51°14.536 2°39.798 7.6 244 17.5 100910 77
2006-08-25 08:51 51°14.54 2°39.787 6.9 319 17.5 100920 77
2006-08-25 08:52 51°14.557 2°39.676 10.8 345 17.5 100900 77
2006-08-25 08:53 51°14.535 2°39.498 6.8 5 17.4 100890 75
2006-08-25 08:54 51°14.47 2°39.398 6.8 -999 17.3 100900 76
2006-08-25 08:55 51°14.436 2°39.311 8 354 17.3 100910 77
2006-08-25 08:56 51°14.415 2°39.27 6.4 352 17.2 100910 77
2006-08-25 08:57 51°14.395 2°39.282 5.6 7 17.2 100910 76
2006-08-25 08:58 51°14.379 2°39.285 6.7 13 17.2 100910 78
2006-08-25 08:59 51°14.363 2°39.281 6.9 17 17.3 100910 79
2006-08-25 09:00 51°14.345 2°39.272 5.8 21 17.3 100910 78
2006-08-25 09:01 51°14.325 2°39.261 6 19 17.4 100910 79
2006-08-25 09:02 51°14.305 2°39.248 6.9 20 17.4 100900 79
2006-08-25 09:03 51°14.283 2°39.235 6.5 29 17.4 100910 79
2006-08-25 09:04 51°14.262 2°39.221 5.9 24 17.4 100900 78
2006-08-25 09:05 51°14.24 2°39.206 7.4 14 17.4 100900 78
2006-08-25 09:06 51°14.218 2°39.191 6.6 17 17.4 100900 78
2006-08-25 09:07 51°14.196 2°39.176 6.7 9 17.4 100900 79
2006-08-25 09:08 51°14.175 2°39.159 6.6 14 17.5 100900 80
2006-08-25 09:09 51°14.152 2°39.142 7.6 12 17.4 100910 79
2006-08-25 09:10 51°14.13 2°39.125 7.9 8 17.4 100910 79
2006-08-25 09:11 51°14.107 2°39.107 5.6 7 17.5 100910 80
2006-08-25 09:12 51°14.085 2°39.09 7.3 12 17.3 100910 79
2006-08-25 09:13 51°14.064 2°39.074 6.2 7 17.4 100910 80
2006-08-25 09:14 51°14.041 2°39.056 7.8 13 17.4 100900 80
2006-08-25 09:15 51°14.018 2°39.038 8 12 17.3 100910 81
2006-08-25 09:16 51°13.995 2°39.021 7 8 17.2 100900 80
2006-08-25 09:17 51°13.972 2°39.003 7.1 8 17.2 100910 80
2006-08-25 09:18 51°13.95 2°38.986 7.7 9 17.2 100900 79
2006-08-25 09:19 51°13.929 2°38.969 5.8 8 17.3 100910 80
2006-08-25 09:20 51°13.908 2°38.951 5.2 7 17.3 100920 80
2006-08-25 09:21 51°13.885 2°38.928 6.8 9 17.3 100910 79
2006-08-25 09:22 51°13.829 2°38.898 6.2 35 17.3 100900 80
2006-08-25 09:23 51°13.769 2°38.977 4.4 264 17.2 100920 78
2006-08-25 09:24 51°13.814 2°39.061 8 236 17.4 100910 79
2006-08-25 09:25 51°13.906 2°39.095 9.9 34 17.5 100900 78
2006-08-25 09:26 51°14.03 2°39.141 9.9 232 17.6 100900 79
2006-08-25 09:27 51°14.165 2°39.195 9.7 233 17.5 100900 77
2006-08-25 09:28 51°14.301 2°39.243 9.3 234 17.5 100890 77
2006-08-25 09:29 51°14.386 2°39.252 7.9 236 17.5 100900 78
2006-08-25 09:30 51°14.431 2°39.241 7.2 233 17.5 100910 78
2006-08-25 09:31 51°14.422 2°39.23 6.1 32 17.5 100900 79
2006-08-25 09:32 51°14.406 2°39.222 6.6 33 17.6 100910 78
2006-08-25 09:33 51°14.392 2°39.216 6.9 239 17.6 100910 78
2006-08-25 09:34 51°14.391 2°39.209 6.6 237 17.6 100910 77
2006-08-25 09:35 51°14.381 2°39.201 6.9 249 17.7 100910 77
2006-08-25 09:36 51°14.371 2°39.198 7.3 241 17.7 100910 77
2006-08-25 09:37 51°14.364 2°39.192 6.8 245 17.7 100910 77
2006-08-25 09:38 51°14.35 2°39.185 7.1 256 17.7 100920 77
2006-08-25 09:39 51°14.344 2°39.182 6.5 246 17.7 100910 77
2006-08-25 09:40 51°14.334 2°39.177 6.4 249 17.7 100920 77
2006-08-25 09:41 51°14.32 2°39.171 7.1 252 17.7 100920 77
2006-08-25 09:42 51°14.312 2°39.17 7.5 251 17.7 100920 76
2006-08-25 09:43 51°14.299 2°39.165 8.1 255 17.7 100920 76
2006-08-25 09:44 51°14.283 2°39.16 5.8 260 17.7 100920 77
2006-08-25 09:45 51°14.267 2°39.152 4.9 261 17.6 100920 77
2006-08-25 09:46 51°14.249 2°39.144 5.6 265 17.7 100920 78
2006-08-25 09:47 51°14.229 2°39.135 3.4 263 17.5 100920 77
2006-08-25 09:48 51°14.209 2°39.123 6 268 17.5 100920 77
2006-08-25 09:49 51°14.19 2°39.11 5.5 36 17.5 100920 77
2006-08-25 09:50 51°14.17 2°39.099 4.3 266 17.6 100920 78
2006-08-25 09:51 51°14.15 2°39.087 5.5 268 17.6 100920 78
2006-08-25 09:52 51°14.13 2°39.075 6.5 36 17.5 100930 78
2006-08-25 09:53 51°14.11 2°39.064 6.2 47 17.5 100920 77
2006-08-25 09:54 51°14.091 2°39.054 6.6 34 17.5 100930 77
2006-08-25 09:55 51°14.072 2°39.045 5.7 268 17.5 100920 77
2006-08-25 09:56 51°14.053 2°39.037 5.9 266 17.5 100920 78
2006-08-25 09:57 51°14.036 2°39.032 6.9 260 17.5 100920 78
2006-08-25 09:58 51°14.041 2°39.041 6.4 246 17.5 100920 77
2006-08-25 09:59 51°14.04 2°39.042 6.6 249 17.5 100920 77
2006-08-25 10:00 51°14.03 2°39.038 6.7 251 17.6 100920 78
2006-08-25 10:01 51°14.018 2°39.034 7 252 17.6 100920 78
2006-08-25 10:02 51°14.003 2°39.031 6.3 255 17.6 100920 77
2006-08-25 10:03 51°13.986 2°39.026 6.5 257 17.7 100920 78
2006-08-25 10:04 51°13.969 2°39.021 4.4 262 17.6 100930 77
2006-08-25 10:05 51°13.952 2°39.015 4.9 261 17.6 100930 77
2006-08-25 10:06 51°13.939 2°39.022 5.3 251 17.6 100920 76
2006-08-25 10:07 51°13.979 2°39.057 7.2 315 17.6 100910 76
2006-08-25 10:08 51°14.076 2°39.042 9.1 316 17.6 100900 76
2006-08-25 10:09 51°14.185 2°39.003 8.1 316 17.6 100900 76
2006-08-25 10:10 51°14.301 2°38.965 9.9 322 17.7 100910 77
2006-08-25 10:11 51°14.419 2°38.935 9.5 34 17.7 100900 76
2006-08-25 10:12 51°14.527 2°38.906 7.7 37 17.7 100910 76
2006-08-25 10:13 51°14.574 2°38.863 5.9 319 17.7 100910 76
2006-08-25 10:14 51°14.579 2°38.826 6.2 324 17.7 100910 77
2006-08-25 10:15 51°14.56 2°38.811 6.3 34 17.7 100920 76
2006-08-25 10:16 51°14.537 2°38.799 5.9 244 17.8 100920 76
2006-08-25 10:17 51°14.513 2°38.788 5 250 17.8 100920 76
2006-08-25 10:18 51°14.49 2°38.776 5.6 259 17.8 100930 76
2006-08-25 10:19 51°14.467 2°38.762 4.2 261 17.8 100920 76
2006-08-25 10:20 51°14.445 2°38.748 5 270 17.8 100920 76
2006-08-25 10:21 51°14.423 2°38.734 5.5 266 17.8 100920 77
2006-08-25 10:22 51°14.402 2°38.721 4.5 267 17.7 100920 77
2006-08-25 10:23 51°14.381 2°38.709 4.7 269 17.6 100930 77
2006-08-25 10:24 51°14.359 2°38.697 4.9 270 17.6 100930 78
2006-08-25 10:25 51°14.339 2°38.687 5.5 34 17.6 100920 77
2006-08-25 10:26 51°14.319 2°38.679 4.9 268 17.6 100930 78
2006-08-25 10:27 51°14.3 2°38.671 5 270 17.6 100920 78
2006-08-25 10:28 51°14.281 2°38.663 4.8 265 17.6 100930 78
2006-08-25 10:29 51°14.261 2°38.656 4.3 267 17.5 100930 77
2006-08-25 10:30 51°14.241 2°38.649 3.9 265 17.5 100930 77
2006-08-25 10:31 51°14.222 2°38.643 4.6 267 17.5 100930 77
2006-08-25 10:32 51°14.203 2°38.637 5 265 17.5 100930 77
2006-08-25 10:33 51°14.182 2°38.631 3.4 263 17.5 100930 76
2006-08-25 10:34 51°14.163 2°38.624 4.2 263 17.5 100930 76
2006-08-25 10:35 51°14.143 2°38.618 4.7 270 17.6 100930 76
2006-08-25 10:36 51°14.124 2°38.613 3.5 263 17.5 100940 76
2006-08-25 10:37 51°14.106 2°38.61 4.4 265 17.6 100930 76
2006-08-25 10:38 51°14.087 2°38.608 4.7 269 17.5 100930 74
2006-08-25 10:39 51°14.074 2°38.615 4.7 247 17.6 100930 75
2006-08-25 10:40 51°14.137 2°38.656 8.1 32 17.6 100930 75
2006-08-25 10:41 51°14.252 2°38.711 7.7 31 17.6 100920 75
2006-08-25 10:42 51°14.373 2°38.771 8.6 37 17.7 100920 76
2006-08-25 10:43 51°14.461 2°38.81 6.5 32 17.6 100920 75
2006-08-25 10:44 51°14.485 2°38.828 5.9 245 17.7 100930 75
2006-08-25 10:45 51°14.484 2°38.836 6 255 17.7 100930 75
2006-08-25 10:46 51°14.473 2°38.841 6.1 249 17.7 100930 75
2006-08-25 10:47 51°14.461 2°38.846 6.3 251 17.8 100930 75
2006-08-25 10:48 51°14.446 2°38.846 5.4 251 17.8 100930 74
2006-08-25 10:49 51°14.43 2°38.847 6.3 257 17.8 100920 74
2006-08-25 10:50 51°14.412 2°38.847 5.7 253 17.8 100930 74
2006-08-25 10:51 51°14.393 2°38.847 6.9 257 17.8 100920 74
2006-08-25 10:52 51°14.375 2°38.848 4.4 261 17.8 100930 74
2006-08-25 10:53 51°14.356 2°38.848 3.9 262 17.8 100930 75
2006-08-25 10:54 51°14.335 2°38.849 3.5 262 17.9 100930 74
2006-08-25 10:55 51°14.315 2°38.849 3.4 263 17.8 100930 76
2006-08-25 10:56 51°14.296 2°38.851 3.7 266 17.8 100920 76
2006-08-25 10:57 51°14.277 2°38.853 4.3 267 17.7 100930 75
2006-08-25 10:58 51°14.259 2°38.856 3.4 264 17.8 100920 76
2006-08-25 10:59 51°14.241 2°38.861 4.6 258 17.7 100930 75
2006-08-25 11:00 51°14.222 2°38.865 4.5 261 17.7 100920 75
2006-08-25 11:01 51°14.202 2°38.87 4.3 261 17.7 100930 75
2006-08-25 11:02 51°14.184 2°38.876 3.7 264 17.8 100920 76
2006-08-25 11:03 51°14.166 2°38.881 4 268 17.8 100930 76
2006-08-25 11:04 51°14.148 2°38.888 3.3 264 17.8 100920 76
2006-08-25 11:05 51°14.131 2°38.896 5.1 266 17.8 100920 75
2006-08-25 11:06 51°14.112 2°38.905 3.6 262 17.7 100920 75
2006-08-25 11:07 51°14.095 2°38.913 4.5 261 17.7 100930 76
2006-08-25 11:08 51°14.076 2°38.921 3.9 259 17.7 100930 76
2006-08-25 11:09 51°14.058 2°38.929 3.4 265 17.7 100930 76
2006-08-25 11:10 51°14.04 2°38.937 4.8 268 17.8 100930 77
2006-08-25 11:11 51°14.024 2°38.946 4.3 268 17.7 100930 75
2006-08-25 11:12 51°14.006 2°38.955 4.5 328 17.6 100930 75
2006-08-25 11:13 51°13.99 2°38.963 4.9 269 17.6 100920 75
2006-08-25 11:14 51°13.973 2°38.973 4.1 266 17.6 100930 75
2006-08-25 11:15 51°13.957 2°38.983 3.7 266 17.6 100920 75
2006-08-25 11:16 51°13.94 2°38.994 3.3 264 17.7 100920 75
2006-08-25 11:17 51°13.925 2°39.005 4 267 17.7 100920 76
2006-08-25 11:18 51°13.91 2°39.017 4.3 269 17.7 100910 75
2006-08-25 11:19 51°13.897 2°39.029 3.7 6 17.7 100920 74
2006-08-25 11:20 51°13.884 2°39.044 3.5 266 17.7 100920 74
2006-08-25 11:21 51°13.873 2°39.067 2.6 263 17.8 100920 76
2006-08-25 11:22 51°13.862 2°39.087 4.1 270 17.8 100920 76
2006-08-25 11:23 51°13.852 2°39.11 4.6 33 17.7 100920 75
2006-08-25 11:24 51°13.842 2°39.133 3.8 270 17.7 100920 74
2006-08-25 11:25 51°13.833 2°39.156 3.9 257 17.7 100920 75
2006-08-25 11:26 51°13.824 2°39.18 4.7 259 17.7 100920 75
2006-08-25 11:27 51°13.816 2°39.206 3.8 257 17.7 100920 75
2006-08-25 11:28 51°13.808 2°39.231 5 256 17.7 100920 74
2006-08-25 11:29 51°13.819 2°39.278 5.8 22 17.7 100910 75
2006-08-25 11:30 51°13.849 2°39.311 5.1 30 17.7 100910 74
2006-08-25 11:31 51°13.863 2°39.34 4.9 21 17.8 100910 74
2006-08-25 11:32 51°13.881 2°39.365 6.3 320 17.9 100910 74
2006-08-25 11:33 51°13.936 2°39.293 8.2 335 17.9 100910 73
2006-08-25 11:34 51°14.031 2°39.14 8.5 330 17.9 100900 73
2006-08-25 11:35 51°14.145 2°38.998 8.6 334 17.8 100910 74
2006-08-25 11:36 51°14.252 2°38.852 7.9 328 17.7 100910 74
2006-08-25 11:37 51°14.318 2°38.782 6.1 329 17.7 100910 74
2006-08-25 11:38 51°14.334 2°38.768 4.9 341 17.7 100920 75
2006-08-25 11:39 51°14.338 2°38.748 4.7 351 17.7 100910 74
2006-08-25 11:40 51°14.33 2°38.752 4.7 12 17.7 100920 76
2006-08-25 11:41 51°14.317 2°38.76 4.6 13 17.6 100910 76
2006-08-25 11:42 51°14.304 2°38.772 3.8 9 17.6 100910 76
2006-08-25 11:43 51°14.293 2°38.787 4 19 17.5 100920 76
2006-08-25 11:44 51°14.282 2°38.807 5.2 11 17.6 100910 77
2006-08-25 11:45 51°14.271 2°38.829 3.6 11 17.6 100910 77
2006-08-25 11:46 51°14.26 2°38.852 2.9 17 17.5 100910 77
2006-08-25 11:47 51°14.25 2°38.879 4.4 21 17.7 100910 78
2006-08-25 11:48 51°14.238 2°38.907 4.2 17 17.6 100910 77
2006-08-25 11:49 51°14.228 2°38.935 3.9 21 17.6 100920 77
2006-08-25 11:50 51°14.218 2°38.966 3.3 22 17.6 100920 76
2006-08-25 11:51 51°14.208 2°38.997 3.1 26 17.6 100920 77
2006-08-25 11:52 51°14.189 2°39.02 3.2 27 17.6 100920 76
2006-08-25 11:53 51°14.128 2°39.013 4.8 8 17.7 100920 78
2006-08-25 11:54 51°14.076 2°38.99 4.8 12 17.6 100920 76
2006-08-25 11:55 51°14.042 2°38.977 4.8 9 17.5 100910 75
2006-08-25 11:56 51°14.019 2°38.975 4.2 11 17.5 100920 75
2006-08-25 11:57 51°14 2°38.98 2.6 4 17.5 100920 76
2006-08-25 11:58 51°13.989 2°38.937 4.7 338 17.5 100910 76
2006-08-25 11:59 51°14.007 2°38.901 4 331 17.5 100910 77
2006-08-25 12:00 51°14.023 2°38.906 3.7 323 17.6 100920 77
2006-08-25 12:01 51°14.023 2°38.933 3.7 320 17.7 100910 76
2006-08-25 12:02 51°14.02 2°38.965 3.9 315 17.8 100920 75
2006-08-25 12:03 51°14.017 2°39 3.6 234 17.9 100920 74
2006-08-25 12:04 51°14.013 2°39.036 4.2 237 18 100920 75
2006-08-25 12:05 51°14.008 2°39.073 3.4 24 18 100920 73
2006-08-25 12:06 51°14.002 2°39.11 3.2 243 18.1 100910 73
2006-08-25 12:07 51°13.996 2°39.148 2.9 255 18.2 100920 73
2006-08-25 12:08 51°13.99 2°39.185 1.7 263 18.3 100920 73
2006-08-25 12:09 51°13.985 2°39.222 2.4 267 18.3 100920 73
2006-08-25 12:10 51°13.981 2°39.263 3.1 266 18.3 100920 73
2006-08-25 12:11 51°13.977 2°39.304 2.7 263 18.1 100920 72
2006-08-25 12:12 51°13.972 2°39.345 3.4 270 18.1 100920 72
2006-08-25 12:13 51°13.969 2°39.388 2.8 270 18 100920 73
2006-08-25 12:14 51°13.967 2°39.431 2.1 266 18 100920 73
2006-08-25 12:15 51°13.965 2°39.475 3.1 267 17.9 100920 73
2006-08-25 12:16 51°13.963 2°39.519 3.1 262 18 100920 75
2006-08-25 12:17 51°13.962 2°39.561 3.1 269 18 100920 75
2006-08-25 12:18 51°13.961 2°39.605 2.4 262 18 100920 75
2006-08-25 12:19 51°13.96 2°39.647 2.7 263 18 100920 75
2006-08-25 12:20 51°13.959 2°39.688 4.3 260 18 100910 76
2006-08-25 12:21 51°13.958 2°39.731 4.4 259 18.1 100910 75
2006-08-25 12:22 51°13.956 2°39.773 4.9 254 18 100910 73
2006-08-25 12:23 51°13.956 2°39.813 3.7 252 18 100910 73
2006-08-25 12:24 51°13.955 2°39.854 3.3 244 18.1 100910 73
2006-08-25 12:25 51°13.955 2°39.899 3.3 20 18.2 100910 73
2006-08-25 12:26 51°13.977 2°39.957 4.3 321 18.2 100920 73
2006-08-25 12:27 51°14.017 2°39.978 4.7 339 18.2 100910 73
2006-08-25 12:28 51°14.043 2°39.936 6 345 18.1 100910 74
2006-08-25 12:29 51°14.069 2°39.867 4.9 343 17.9 100920 74
2006-08-25 12:30 51°14.105 2°39.79 5 342 17.8 100910 75
2006-08-25 12:31 51°14.141 2°39.71 5.6 343 17.7 100910 75
2006-08-25 12:32 51°14.187 2°39.639 6.2 343 17.6 100910 74
2006-08-25 12:33 51°14.222 2°39.585 5.3 356 17.6 100910 74
2006-08-25 12:34 51°14.235 2°39.534 4 360 17.5 100910 76
2006-08-25 12:35 51°14.25 2°39.5 4 351 17.4 100910 76
2006-08-25 12:36 51°14.265 2°39.505 3.7 349 17.4 100910 76
2006-08-25 12:37 51°14.273 2°39.526 2.2 344 17.4 100910 76
2006-08-25 12:38 51°14.282 2°39.552 2.6 348 17.4 100910 76
2006-08-25 12:39 51°14.287 2°39.576 2.5 15 17.6 100910 77
2006-08-25 12:40 51°14.291 2°39.601 4.5 13 17.7 100900 77
2006-08-25 12:41 51°14.301 2°39.637 2.6 344 17.8 100910 78
2006-08-25 12:42 51°14.306 2°39.681 3.2 35 17.8 100910 77
2006-08-25 12:43 51°14.306 2°39.724 2.7 346 17.8 100910 76
2006-08-25 12:44 51°14.306 2°39.769 2.7 347 17.7 100920 76
2006-08-25 12:45 51°14.305 2°39.815 2.4 358 17.6 100920 75
2006-08-25 12:46 51°14.306 2°39.861 2.3 6 17.6 100910 75
2006-08-25 12:47 51°14.31 2°39.911 2.3 15 17.6 100900 76
2006-08-25 12:48 51°14.313 2°39.969 2.4 327 17.7 100910 76
2006-08-25 12:49 51°14.323 2°40.004 3.2 358 17.7 100910 75
2006-08-25 12:50 51°14.34 2°39.977 4.8 9 17.7 100910 75
2006-08-25 12:51 51°14.316 2°39.913 3.6 3 17.6 100910 75
2006-08-25 12:52 51°14.293 2°39.822 4.3 355 17.6 100910 75
2006-08-25 12:53 51°14.283 2°39.745 5.8 360 17.5 100910 75
2006-08-25 12:54 51°14.272 2°39.657 4.5 356 17.4 100910 74
2006-08-25 12:55 51°14.261 2°39.559 4.1 1 17.4 100920 74
2006-08-25 12:56 51°14.243 2°39.491 3.9 354 17.4 100920 73
2006-08-25 12:57 51°14.255 2°39.477 3.2 349 17.4 100920 74
2006-08-25 12:58 51°14.262 2°39.505 3.3 346 17.6 100920 75
2006-08-25 12:59 51°14.267 2°39.537 2.9 355 17.6 100920 76
2006-08-25 13:00 51°14.271 2°39.572 2.6 357 17.6 100920 75
2006-08-25 13:01 51°14.276 2°39.61 2.8 357 17.6 100920 76
2006-08-25 13:02 51°14.28 2°39.651 3 6 17.5 100920 75
2006-08-25 13:03 51°14.285 2°39.692 4.1 11 17.5 100920 76
2006-08-25 13:04 51°14.29 2°39.734 3.9 12 17.4 100910 75
2006-08-25 13:05 51°14.295 2°39.774 3.7 15 17.5 100920 73
2006-08-25 13:06 51°14.301 2°39.813 3.6 21 17.5 100910 73
2006-08-25 13:07 51°14.306 2°39.852 3 26 17.6 100920 72
2006-08-25 13:08 51°14.275 2°39.874 2.1 17 17.6 100920 72
2006-08-25 13:09 51°14.212 2°40.014 2.7 317 17.7 100920 73
2006-08-25 13:10 51°14.23 2°40.321 4.9 34 17.9 100910 73
2006-08-25 13:11 51°14.25 2°40.666 5.4 317 18 100910 73
2006-08-25 13:12 51°14.264 2°41.016 4.7 315 17.9 100910 72
2006-08-25 13:13 51°14.283 2°41.383 4.7 40 18 100910 72
2006-08-25 13:14 51°14.301 2°41.738 5.4 34 18 100910 71
2006-08-25 13:15 51°14.321 2°42.096 4.7 39 17.9 100910 71
2006-08-25 13:16 51°14.341 2°42.451 4.6 41 17.9 100910 70
2006-08-25 13:17 51°14.374 2°42.807 5.5 39 17.9 100910 71
2006-08-25 13:18 51°14.395 2°43.165 5.7 230 17.9 100910 71
2006-08-25 13:19 51°14.42 2°43.523 6.1 39 17.9 100910 71
2006-08-25 13:20 51°14.451 2°43.882 5.6 38 17.9 100900 70
2006-08-25 13:21 51°14.472 2°44.241 6 33 17.9 100910 69
2006-08-25 13:22 51°14.497 2°44.597 5.4 30 17.9 100900 69
2006-08-25 13:23 51°14.523 2°44.952 6.5 40 17.9 100910 69
2006-08-25 13:24 51°14.546 2°45.308 5.8 40 17.9 100900 69
2006-08-25 13:25 51°14.565 2°45.658 6.2 34 17.9 100910 70
2006-08-25 13:26 51°14.59 2°46.003 5.5 34 17.9 100910 70
2006-08-25 13:27 51°14.613 2°46.35 5.1 27 17.9 100900 69
2006-08-25 13:28 51°14.637 2°46.691 5 33 17.9 100910 69
2006-08-25 13:29 51°14.666 2°47.048 5.7 232 17.9 100900 70
2006-08-25 13:30 51°14.692 2°47.401 6.1 35 17.9 100900 70
2006-08-25 13:31 51°14.719 2°47.755 5.4 27 17.9 100900 69
2006-08-25 13:32 51°14.739 2°48.107 5 233 17.9 100900 69
2006-08-25 13:33 51°14.756 2°48.458 4.6 229 17.9 100910 69
2006-08-25 13:34 51°14.779 2°48.806 4.7 36 18 100900 69
2006-08-25 13:35 51°14.802 2°49.155 5 231 18 100900 68
2006-08-25 13:36 51°14.83 2°49.505 5.8 30 18.1 100900 70
2006-08-25 13:37 51°14.856 2°49.856 6.2 36 18 100900 71
2006-08-25 13:38 51°14.88 2°50.21 5.4 31 18 100900 71
2006-08-25 13:39 51°14.902 2°50.562 4.7 40 18 100900 72
2006-08-25 13:40 51°14.916 2°50.915 5.9 34 18 100900 72
2006-08-25 13:41 51°14.931 2°51.268 5.5 39 17.9 100900 72
2006-08-25 13:42 51°14.928 2°51.616 4.3 39 18 100900 73
2006-08-25 13:43 51°14.894 2°51.947 5.1 317 18 100900 73
2006-08-25 13:44 51°14.865 2°52.302 5.2 31 17.9 100900 73
2006-08-25 13:45 51°14.835 2°52.644 5 22 18 100900 73
2006-08-25 13:46 51°14.802 2°52.984 3.9 38 17.9 100900 73
2006-08-25 13:47 51°14.763 2°53.311 5 27 18 100900 74
2006-08-25 13:48 51°14.721 2°53.638 4.2 35 17.9 100900 73
2006-08-25 13:49 51°14.674 2°53.971 4.2 29 17.9 100900 73
2006-08-25 13:50 51°14.615 2°54.308 4.9 234 17.9 100900 73
2006-08-25 13:51 51°14.536 2°54.615 3.8 235 17.9 100910 72
2006-08-25 13:52 51°14.44 2°54.933 3 26 17.9 100900 72
2006-08-25 13:53 51°14.32 2°55.173 1 325 17.9 100910 71
2006-08-25 13:54 51°14.193 2°55.361 0.5 12 18 100900 71
2006-08-25 13:55 51°14.072 2°55.46 1.3 23 18.1 100900 71
2006-08-25 13:56 51°13.966 2°55.535 1 26 18.3 100900 71
2006-08-25 13:57 51°13.861 2°55.611 1.3 32 18.5 100900 71
2006-08-25 13:58 51°13.767 2°55.701 2.4 42 18.6 100900 70
2006-08-25 13:59 51°13.713 2°55.792 2.2 41 18.6 100900 68
2006-08-25 14:00 51°13.671 2°55.875 2.4 40 18.5 100900 68
2006-08-25 14:01 51°13.645 2°55.935 2.3 33 18.4 100890 68
2006-08-25 14:02 51°13.624 2°55.99 2.3 15 18.5 100900 68
2006-08-25 14:03 51°13.611 2°56.041 4.1 41 18.5 100890 68
2006-08-25 14:04 51°13.605 2°56.072 3.7 40 18.4 100890 67
2006-08-25 14:05 51°13.599 2°56.09 4.8 40 18.3 100890 68